Home   Weather   Belo Horizonte   Past weeks

Flag for Brazil Past Weather in Belo Horizonte, Minas Gerais, Brazil — Yesterday and Last 2 Weeks

73 °F


Feels Like: 75 °F
Forecast: 72 / 82 °F
Wind: 13 mph from East

Location: Belo Horizonte Airport

Current Time: Oct 22, 2016 at 5:17:23 AM

Latest Report: Oct 22, 2016 at 4:00 AM

Visibility: 10 mi

Pressure: 30.01 "Hg (27.18 "Hg at 860m altitude)

Humidity: 74%

Dew Point: 64 °F

Location of Belo HorizonteLocation

Past Weather in Belo Horizonte — Graph


Belo Horizonte Temperature Yesterday

Maximum temperature yesterday: 93 °F (at 3:00 PM)
Minimum temperature yesterday: 70 °F (at 7:00 AM)
Average temperature yesterday: 80 °F

High & Low Weather Summary for the Past Weeks

High93 °F (Oct 20, 4:00 PM)83% (Oct 11, 5:00 AM)30.24 "Hg (Oct 11, 5:00 AM)
Low57 °F (Oct 8, 3:00 AM)20% (Oct 8, 4:00 PM)29.83 "Hg (Oct 7, 3:00 AM)
Average75 °F56%30.05 "Hg
* Reported Oct 7 3:00 AM — Oct 22 4:00 AM, Belo Horizonte, Weather by CustomWeather, © 2016

Note: Actual official high and low records may vary slightly from our data, if they occured in-between our weather recording intervals... More about our weather records


Belo Horizonte Weather History for the Previous 24 Hours

Scroll right to see more
Time TempWeatherWind HumidityBarometerVisibility
4:00 AM
Sat, Oct 22
73 °FClear.13 mph74%30.01 "Hg10 mi
3:00 AM75 °FClear.13 mph69%30.01 "Hg10 mi
2:00 AM75 °FClear.14 mph69%30.01 "Hg10 mi
1:00 AM75 °FClear.13 mph65%29.98 "Hg10 mi
12:00 AM75 °FClear.9 mph65%30.01 "Hg10 mi
11:00 PM
Fri, Oct 21
77 °FPassing clouds.9 mph61%29.98 "HgN/A
10:00 PM79 °FPassing clouds.6 mph54%29.98 "HgN/A
9:00 PM81 °FPassing clouds.13 mph51%29.95 "HgN/A
8:00 PM86 °FPassing clouds.14 mph40%29.92 "HgN/A
7:00 PM88 °FThunderstorms. Passing clouds.7 mph35%29.89 "HgN/A
6:00 PM90 °FPassing clouds.9 mph33%29.86 "HgN/A
5:00 PM90 °FPassing clouds.10 mph33%29.86 "HgN/A
4:00 PM90 °FScattered clouds.8 mph33%29.89 "HgN/A
3:00 PM93 °FPartly sunny.5 mph28%29.92 "HgN/A
2:00 PM91 °FPartly sunny.8 mph32%29.95 "HgN/A
1:00 PM88 °FPassing clouds.8 mph38%29.98 "HgN/A
12:00 PM86 °FPassing clouds.5 mph40%30.01 "HgN/A
11:00 AM84 °FPassing clouds.3 mph43%30.01 "HgN/A
10:00 AM82 °FPassing clouds.5 mph45%30.04 "HgN/A
9:00 AM77 °FSunny.5 mph61%30.01 "Hg10 mi
8:00 AM72 °FSunny.3 mph73%29.98 "Hg10 mi
7:00 AM70 °FSunny.3 mph73%29.98 "Hg10 mi
6:00 AM72 °FClear.6 mph69%29.95 "Hg10 mi
5:00 AM72 °FClear.3 mph69%29.95 "Hg10 mi
Weather by CustomWeather, © 2016

See weather overviewHow to use our weather pages